Location: Jackson Park
(37.2862°N, 79.9123°W)
Time: 19:54:48
(UTC+00:00)

Vanguard 2 - Pass Details

Date: 10 May 2026
Orbit: 553 x 2894 km, 32.9° (Epoch: 6 June)

Event Time Altitude Azimuth Distance (km) Brightness Sun altitude
Rises 05:08:58 0° 191° (S) 6,356 - -35.1°
Reaches altitude 10° 05:15:03 10° 175° (S) 5,575 - -35.1°
Maximum altitude 05:25:30 19° 138° (SE) 4,936 - -35.0°
Exits shadow 05:28:11 19° 127° (SE) 4,966 11.3 -35.0°
Drops below altitude 10° 05:35:41 10° 100° (E) 5,480 11.8 -34.9°
Sets 05:41:25 0° 85° (E) 6,224 12.3 -34.8°
